Voltar ao catálogo

COSMOS 2530

AtivoNavegaçãoPO
NORAD 43751·PAYLOAD·🇷🇺 Russia

Lançado Nov 30, 2018 de Plesetsk Cosmodrome

Loading…

Próximas Passagens (próximas 24 horas)

TLE

AtualizadoSource: Space-Track

Época: Sep 14, 2026, 13:37 UTC

1 43751U 18097A   26257.56780113  .00000066  00000-0  40686-3 0  9997
2 43751  82.5193 166.8242 0018450 198.4218 161.6196 12.42883233353399

Acompanhe COSMOS 2530 em tempo real com AllMySat

Download on the App Store